DW2004 Weather Reports


Display with metric or nautical units.
time (UTC)temp
F
wind
direction
speed
MPH
gust
MPH
rain 1hr
in
rain 24hr
in
rain mn
in
humidity
%
barometer
mb
20260901120007 80 239 0.0 0.0 0.00 0.00 0.00 71 1016.7
20260901115501 80 238 0.0 0.0 0.00 0.00 0.00 71 1016.6
20260901115001 80 239 0.0 0.0 0.00 0.00 0.00 71 1016.6
20260901114504 80 239 0.0 0.0 0.00 0.00 0.00 71 1016.5
20260901114001 80 239 0.0 0.0 0.00 0.00 0.00 71 1016.6
20260901113005 80 239 0.0 0.0 0.00 0.00 0.00 70 1016.6
20260901112501 81 238 0.0 0.0 0.00 0.00 0.00 70 1016.5
20260901112001 81 238 0.0 0.0 0.00 0.00 0.00 69 1016.4
20260901111505 81 239 0.0 0.0 0.00 0.00 0.00 69 1016.4
20260901111001 81 239 0.0 0.0 0.00 0.00 0.00 69 1016.4
20260901110006 81 238 0.0 0.0 0.00 0.00 0.00 67 1016.3
20260901105500 82 239 0.0 0.0 0.00 0.00 0.00 66 1016.4
20260901105000 82 238 0.0 0.0 0.00 0.00 0.00 65 1016.3
20260901104504 83 238 0.0 1.0 0.00 0.00 0.00 65 1016.3
20260901104000 83 239 0.0 2.0 0.00 0.00 0.00 65 1016.3
20260901103004 83 238 0.0 3.0 0.00 0.00 0.00 64 1016.1
20260901101504 84 239 1.0 5.0 0.00 0.00 0.00 63 1015.9
20260901101001 84 245 1.0 7.0 0.00 0.00 0.00 63 1015.8
20260901100501 84 246 1.0 7.0 0.00 0.00 0.00 62 1015.9
20260901100007 84 229 0.0 5.0 0.00 0.00 0.00 62 1016.0
20260901095501 84 229 1.0 5.0 0.00 0.00 0.00 61 1016.0
20260901095001 85 229 0.0 7.0 0.00 0.00 0.00 61 1016.0
20260901094504 85 227 3.0 7.0 0.00 0.00 0.00 61 1016.1
20260901094001 85 261 2.0 6.0 0.00 0.00 0.00 61 1016.1
20260901093500 85 253 1.0 7.0 0.00 0.00 0.00 60 1016.2
20260901093004 85 138 1.0 7.0 0.00 0.00 0.00 60 1016.2
20260901092000 85 138 1.0 8.0 0.00 0.00 0.00 59 1016.4
20260901091504 85 132 2.0 8.0 0.00 0.00 0.00 59 1016.3
20260901091001 85 125 0.0 7.0 0.00 0.00 0.00 58 1016.3
20260901090502 85 121 1.0 6.0 0.00 0.00 0.00 58 1016.4
20260901090008 85 119 1.0 7.0 0.00 0.00 0.00 58 1016.3
20260901085501 85 119 1.0 7.0 0.00 0.00 0.00 58 1016.3
20260901085001 85 115 0.0 6.0 0.00 0.00 0.00 58 1016.3
20260901084504 85 115 0.0 6.0 0.00 0.00 0.00 58 1016.3
20260901084000 85 114 1.0 4.0 0.00 0.00 0.00 58 1016.2
20260901083500 85 115 1.0 4.0 0.00 0.00 0.00 59 1016.1
20260901083004 84 92 0.0 3.0 0.00 0.00 0.00 59 1016.1
20260901082500 84 92 0.0 3.0 0.00 0.00 0.00 59 1016.1
20260901082001 85 92 0.0 0.0 0.00 0.00 0.00 59 1016.1
20260901081000 85 92 0.0 0.0 0.00 0.00 0.00 57 1016.0
20260901080500 85 92 0.0 0.0 0.00 0.00 0.00 57 1015.9
20260901080007 86 92 0.0 1.0 0.00 0.00 0.00 56 1015.9
20260901075500 86 92 0.0 2.0 0.00 0.00 0.00 56 1015.9
20260901075000 86 92 0.0 2.0 0.00 0.00 0.00 56 1015.9
20260901074503 86 90 0.0 2.0 0.00 0.00 0.00 56 1015.9
20260901074000 86 82 0.0 2.0 0.00 0.00 0.00 56 1015.9
20260901073500 86 104 0.0 4.0 0.00 0.00 0.00 56 1015.9
20260901073004 86 104 0.0 4.0 0.00 0.00 0.00 56 1015.9
20260901072501 86 103 0.0 2.0 0.00 0.00 0.00 56 1015.9
20260901072000 86 103 0.0 1.0 0.00 0.00 0.00 56 1015.9
20260901071504 87 104 0.0 2.0 0.00 0.00 0.00 56 1015.9
20260901071000 87 104 0.0 3.0 0.00 0.00 0.00 56 1015.9
20260901070500 86 103 0.0 3.0 0.00 0.00 0.00 57 1015.9
20260901065501 86 107 0.0 3.0 0.00 0.00 0.00 58 1015.9
20260901065000 86 107 0.0 1.0 0.00 0.00 0.00 58 1015.9
20260901064503 86 107 0.0 0.0 0.00 0.00 0.00 58 1015.8
20260901063459 85 107 0.0 1.0 0.00 0.00 0.00 57 1015.8
20260901063002 85 107 0.0 1.0 0.00 0.00 0.00 57 1015.8
20260901062459 85 107 0.0 1.0 0.00 0.00 0.00 57 1015.7
20260901061959 85 107 0.0 2.0 0.00 0.00 0.00 57 1015.7
20260901061503 85 107 0.0 2.0 0.00 0.00 0.00 57 1015.6
20260901060959 85 107 0.0 0.0 0.00 0.00 0.00 57 1015.6
20260901055505 84 107 0.0 1.0 0.00 0.00 0.00 58 1015.5
20260901055005 84 107 0.0 1.0 0.00 0.00 0.00 58 1015.4
20260901054509 84 107 0.0 0.0 0.00 0.00 0.00 59 1015.4
20260901054005 84 107 0.0 1.0 0.00 0.00 0.00 59 1015.3
20260901053505 83 107 0.0 1.0 0.00 0.00 0.00 60 1015.4
20260901053009 83 107 0.0 1.0 0.00 0.00 0.00 58 1015.4
20260901052505 84 107 0.0 0.0 0.00 0.00 0.00 56 1015.1
20260901052006 84 107 0.0 0.0 0.00 0.00 0.00 57 1015.2
20260901051509 84 107 0.0 0.0 0.00 0.00 0.00 56 1015.0
20260901051005 84 107 0.0 0.0 0.00 0.00 0.00 54 1015.0
20260901050505 84 107 0.0 0.0 0.00 0.00 0.00 53 1015.0
20260901045505 83 107 0.0 0.0 0.00 0.00 0.00 53 1014.9
20260901045005 83 107 0.0 0.0 0.00 0.00 0.00 53 1014.8
20260901044508 83 107 0.0 0.0 0.00 0.00 0.00 52 1014.8
20260901044005 84 107 0.0 0.0 0.00 0.00 0.00 53 1014.8
20260901043506 84 107 0.0 0.0 0.00 0.00 0.00 52 1014.8
20260901043010 84 107 0.0 0.0 0.00 0.00 0.00 52 1014.8
20260901042506 84 107 0.0 0.0 0.00 0.00 0.00 51 1014.8
20260901042005 84 107 0.0 0.0 0.00 0.00 0.00 51 1014.8
20260901041509 84 107 0.0 0.0 0.00 0.00 0.00 51 1014.9
20260901041005 84 107 0.0 0.0 0.00 0.00 0.00 51 1014.8
20260901040505 84 107 0.0 0.0 0.00 0.00 0.00 50 1014.9
20260901035506 84 107 0.0 0.0 0.00 0.00 0.00 50 1014.9
20260901035005 85 107 0.0 0.0 0.00 0.00 0.00 50 1014.9
20260901034508 85 107 0.0 0.0 0.00 0.00 0.00 49 1014.8
20260901034005 85 107 0.0 0.0 0.00 0.00 0.00 49 1014.8
20260901033505 85 107 0.0 0.0 0.00 0.00 0.00 48 1014.8
20260901033011 85 107 0.0 0.0 0.00 0.00 0.00 48 1014.8
20260901032505 85 107 0.0 0.0 0.00 0.00 0.00 49 1014.8
20260901032005 85 107 0.0 0.0 0.00 0.00 0.00 48 1014.8
20260901031509 86 107 0.0 0.0 0.00 0.00 0.00 48 1014.8
20260901031005 86 107 0.0 0.0 0.00 0.00 0.00 48 1014.7
20260901025505 86 107 0.0 0.0 0.00 0.00 0.00 47 1014.6
20260901025005 86 107 0.0 0.0 0.00 0.00 0.00 46 1014.6
20260901024509 87 107 0.0 0.0 0.00 0.00 0.00 47 1014.5
20260901024005 87 107 0.0 0.0 0.00 0.00 0.00 46 1014.4
20260901023505 87 107 0.0 0.0 0.00 0.00 0.00 46 1014.3
20260901023009 87 107 0.0 0.0 0.00 0.00 0.00 46 1014.3
20260901022505 88 107 0.0 0.0 0.00 0.00 0.00 46 1014.2
20260901022005 88 107 0.0 0.0 0.00 0.00 0.00 46 1014.2
20260901021509 88 107 0.0 0.0 0.00 0.00 0.00 45 1014.1
20260901021005 88 107 0.0 0.0 0.00 0.00 0.00 45 1014.0
20260901020505 89 107 0.0 0.0 0.00 0.00 0.00 45 1014.1
20260901020010 89 107 0.0 0.0 0.00 0.00 0.00 44 1014.0
20260901015504 89 107 0.0 0.0 0.00 0.00 0.00 45 1013.9
20260901015005 89 107 0.0 0.0 0.00 0.00 0.00 45 1013.8
20260901014507 90 107 0.0 0.0 0.00 0.00 0.00 43 1013.8
20260901013504 91 107 0.0 0.0 0.00 0.00 0.00 43 1013.8
20260901012504 92 107 0.0 0.0 0.00 0.00 0.00 42 1013.7
20260901012004 92 107 0.0 0.0 0.00 0.00 0.00 41 1013.7
20260901011508 93 107 0.0 0.0 0.00 0.00 0.00 41 1013.6
20260901011004 93 107 0.0 0.0 0.00 0.00 0.00 41 1013.6
20260901010504 94 107 0.0 0.0 0.00 0.00 0.00 40 1013.6
20260901005504 94 107 0.0 1.0 0.00 0.00 0.00 39 1013.6
20260901004507 95 107 0.0 4.0 0.00 0.00 0.00 39 1013.6
20260901004004 95 135 0.0 4.0 0.00 0.00 0.00 38 1013.6
20260901003504 96 111 0.0 4.0 0.00 0.00 0.00 38 1013.6
20260901003009 96 130 1.0 6.0 0.00 0.00 0.00 37 1013.5
20260901002504 97 157 0.0 7.0 0.00 0.00 0.00 36 1013.6
20260901002004 97 142 1.0 7.0 0.00 0.00 0.00 36 1013.6
20260901001508 98 127 0.0 4.0 0.00 0.00 0.00 36 1013.6
20260901001004 98 138 0.0 4.0 0.00 0.00 0.00 34 1013.6
20260831235503 99 103 0.0 6.0 0.00 0.00 0.00 34 1013.6
20260831234508 99 130 1.0 6.0 0.00 0.00 0.00 33 1013.6
20260831233504 100 114 0.0 3.0 0.00 0.00 0.00 32 1013.6
20260831233008 100 110 0.0 4.0 0.00 0.00 0.00 31 1013.5
20260831232503 100 178 1.0 9.0 0.00 0.00 0.00 31 1013.5
20260831232003 100 227 2.0 9.0 0.00 0.00 0.00 31 1013.6
20260831231508 100 99 1.0 4.0 0.00 0.00 0.00 31 1013.6
20260831230503 101 180 0.0 4.0 0.00 0.00 0.00 30 1013.6
20260831225504 100 169 3.0 10.0 0.00 0.00 0.00 30 1013.7
20260831225005 101 172 2.0 9.0 0.00 0.00 0.00 29 1013.7
20260831224510 101 129 1.0 9.0 0.00 0.00 0.00 30 1013.7
20260831224006 101 130 2.0 7.0 0.00 0.00 0.00 30 1013.7
20260831223505 101 98 1.0 8.0 0.00 0.00 0.00 31 1013.8
20260831222005 101 95 1.0 5.0 0.00 0.00 0.00 31 1013.9
20260831221004 102 60 1.0 8.0 0.00 0.00 0.00 30 1014.0
20260831220504 102 141 1.0 7.0 0.00 0.00 0.00 31 1014.0
20260831220012 102 90 1.0 7.0 0.00 0.00 0.00 31 1014.1
20260831215004 102 130 1.0 7.0 0.00 0.00 0.00 31 1014.1
20260831213009 101 81 1.0 10.0 0.00 0.00 0.00 32 1014.3
20260831212004 100 109 1.0 10.0 0.00 0.00 0.00 33 1014.4
20260831211005 99 111 1.0 5.0 0.00 0.00 0.00 33 1014.5
20260831210504 99 213 1.0 6.0 0.00 0.00 0.00 33 1014.5
20260831205503 101 98 2.0 8.0 0.00 0.00 0.00 31 1014.8
20260831205003 101 111 1.0 8.0 0.00 0.00 0.00 31 1014.8
20260831204509 102 107 1.0 7.0 0.00 0.00 0.00 31 1014.9
20260831203503 101 178 2.0 7.0 0.00 0.00 0.00 33 1015.1
20260831202503 101 72 3.0 10.0 0.00 0.00 0.00 32 1015.2
20260831202003 100 104 3.0 9.0 0.00 0.00 0.00 32 1015.2
20260831201003 100 101 2.0 9.0 0.00 0.00 0.00 33 1015.2
20260831200010 102 115 1.0 6.0 0.00 0.00 0.00 31 1015.3
20260831195503 101 105 1.0 8.0 0.00 0.00 0.00 33 1015.4
20260831195003 101 146 2.0 8.0 0.00 0.00 0.00 32 1015.6
20260831194508 101 121 1.0 8.0 0.00 0.00 0.00 33 1015.6
20260831194003 101 88 0.0 8.0 0.00 0.00 0.00 33 1015.7
20260831193503 100 117 1.0 7.0 0.00 0.00 0.00 33 1015.8
20260831193008 100 113 1.0 8.0 0.00 0.00 0.00 34 1015.9
20260831192503 100 180 1.0 10.0 0.00 0.00 0.00 34 1015.9
20260831192003 100 153 2.0 10.0 0.00 0.00 0.00 32 1016.0
20260831191508 100 202 4.0 9.0 0.00 0.00 0.00 33 1016.0
20260831190502 99 207 2.0 11.0 0.00 0.00 0.00 34 1016.0
20260831190011 99 119 1.0 5.0 0.00 0.00 0.00 36 1016.1
20260831185003 99 178 1.0 8.0 0.00 0.00 0.00 34 1016.1
20260831184506 100 221 2.0 8.0 0.00 0.00 0.00 35 1016.2
20260831184003 100 82 0.0 12.0 0.00 0.00 0.00 37 1016.2
20260831183503 99 119 0.0 12.0 0.00 0.00 0.00 38 1016.2
20260831183007 99 192 5.0 10.0 0.00 0.00 0.00 36 1016.3
20260831182503 99 115 1.0 10.0 0.00 0.00 0.00 36 1016.4
20260831182004 99 231 2.0 10.0 0.00 0.00 0.00 38 1016.6
20260831181004 98 142 1.0 9.0 0.00 0.00 0.00 38 1016.9
20260831180504 98 125 2.0 10.0 0.00 0.00 0.00 38 1016.9
20260831180009 98 204 3.0 11.0 0.00 0.00 0.00 38 1017.0
20260831175503 98 107 1.0 9.0 0.00 0.00 0.00 38 1017.0
20260831175003 98 124 3.0 18.0 0.00 0.00 0.00 38 1017.2
20260831174506 98 65 1.0 18.0 0.00 0.00 0.00 39 1017.2
20260831173503 97 194 0.0 5.0 0.00 0.00 0.00 40 1017.3
20260831173006 97 207 1.0 10.0 0.00 0.00 0.00 39 1017.3
20260831172503 96 233 4.0 10.0 0.00 0.00 0.00 40 1017.4
20260831172003 96 188 4.0 10.0 0.00 0.00 0.00 39 1017.5
20260831171506 96 171 1.0 7.0 0.00 0.00 0.00 41 1017.6
20260831171002 96 198 2.0 8.0 0.00 0.00 0.00 40 1017.6
20260831170009 95 113 2.0 9.0 0.00 0.00 0.00 41 1017.5
20260831165503 95 99 3.0 9.0 0.00 0.00 0.00 43 1017.5
20260831165003 94 242 1.0 9.0 0.00 0.00 0.00 43 1017.5
20260831164004 94 174 1.0 7.0 0.00 0.00 0.00 43 1017.6
20260831163504 94 233 1.0 9.0 0.00 0.00 0.00 43 1017.6
20260831163007 93 214 2.0 9.0 0.00 0.00 0.00 43 1017.6
20260831162502 95 171 2.0 8.0 0.00 0.00 0.00 42 1017.7
20260831162002 94 145 1.0 7.0 0.00 0.00 0.00 42 1017.7
20260831161506 94 173 1.0 8.0 0.00 0.00 0.00 43 1017.7
20260831160503 93 249 2.0 8.0 0.00 0.00 0.00 44 1017.8
20260831155502 93 221 0.0 6.0 0.00 0.00 0.00 45 1017.8
20260831155001 93 233 1.0 10.0 0.00 0.00 0.00 46 1017.8
20260831154506 92 192 2.0 10.0 0.00 0.00 0.00 46 1017.8
20260831154002 92 259 0.0 7.0 0.00 0.00 0.00 46 1017.7
20260831153503 92 152 2.0 8.0 0.00 0.00 0.00 46 1017.6
20260831152501 91 210 0.0 7.0 0.00 0.00 0.00 49 1017.5
20260831152002 91 205 0.0 7.0 0.00 0.00 0.00 49 1017.6
20260831151001 90 128 2.0 7.0 0.00 0.00 0.00 49 1017.5
20260831150501 90 179 1.0 5.0 0.00 0.00 0.00 51 1017.4
20260831150007 89 179 1.0 5.0 0.00 0.00 0.00 53 1017.5
20260831145501 89 178 1.0 6.0 0.00 0.00 0.00 54 1017.5
20260831145001 88 178 1.0 6.0 0.00 0.00 0.00 54 1017.5
20260831144001 88 213 1.0 11.0 0.00 0.00 0.00 54 1017.5
20260831143501 87 196 3.0 11.0 0.00 0.00 0.00 55 1017.5
20260831143006 87 221 2.0 9.0 0.00 0.00 0.00 57 1017.5
20260831142501 87 197 2.0 9.0 0.00 0.00 0.00 57 1017.5
20260831142001 87 208 1.0 6.0 0.00 0.00 0.00 57 1017.5
20260831141001 86 184 1.0 12.0 0.00 0.00 0.00 60 1017.6
20260831140501 86 179 4.0 12.0 0.00 0.00 0.00 60 1017.6
20260831140008 86 200 2.0 7.0 0.00 0.00 0.00 61 1017.5
20260831135502 86 193 0.0 8.0 0.00 0.00 0.00 62 1017.4
20260831135001 85 196 3.0 8.0 0.00 0.00 0.00 61 1017.3
20260831134505 85 198 1.0 6.0 0.00 0.00 0.00 62 1017.1
20260831134001 85 221 1.0 6.0 0.00 0.00 0.00 63 1017.1
20260831133501 85 221 0.0 6.0 0.00 0.00 0.00 64 1017.1
20260831133005 85 221 0.0 5.0 0.00 0.00 0.00 64 1017.1
20260831132501 85 221 1.0 4.0 0.00 0.00 0.00 64 1016.9
20260831132002 84 219 0.0 3.0 0.00 0.00 0.00 65 1016.9
20260831131505 84 229 0.0 4.0 0.00 0.00 0.00 66 1016.8
20260831131002 83 229 1.0 4.0 0.00 0.00 0.00 66 1016.7
20260831130501 83 229 0.0 2.0 0.00 0.00 0.00 66 1016.6
20260831130007 83 229 0.0 0.0 0.00 0.00 0.00 67 1016.7
20260831125502 82 229 0.0 1.0 0.00 0.00 0.00 69 1016.5
20260831125001 81 229 0.0 3.0 0.00 0.00 0.00 70 1016.3
20260831124506 81 229 0.0 1.0 0.00 0.00 0.00 70 1016.2
20260831123501 80 229 0.0 1.0 0.00 0.00 0.00 71 1016.1
20260831122002 80 229 0.0 0.0 0.00 0.00 0.00 70 1015.9
20260831121505 80 229 0.0 0.0 0.00 0.00 0.00 70 1015.8
20260831121001 80 229 0.0 0.0 0.00 0.00 0.00 70 1015.8
20260831120501 80 229 0.0 0.0 0.00 0.00 0.00 70 1015.8